Regional Weather Roundup
Issued by NWS

Home | Current Version | Previous Version | Text Only | Print | Product List | Glossary On
Versions: 1 2 3 4 5 6 7 8 9 10 11 12 13 14 15 16 17 18 19 20 21 22 23 24 25 26 27 28 29 30 31 32 33 34 35 36 37 38 39 40 41 42 43 44 45 46 47 48 49 50
838
ASHW40 PHFO 241043
RWRHI

WEATHER ROUNDUP FOR HAWAII
NATIONAL WEATHER SERVICE HONOLULU HI
1200 AM HST WED MAY 24 2017

THIS IS AN AUTOMATED REPORT THAT HAS NOT BEEN QUALITY CONTROLLED.

NOTE..."FAIR" INDICATES FEW OR NO CLOUDS BELOW 12,000 FEET WITH NO
SIGNIFICANT WEATHER AND/OR OBSTRUCTIONS TO VISIBILITY.

* - THESE SITES REPORT LIMITED FIELDS

HIZ001>004-241100-
KAUAI-NIIHAU-

CITY           SKY/WX    TMP DP  RH WIND       PRES   REMARKS
LIHUE APT      PTCLDY    76  66  71 NE17      30.12S
PORT ALLEN*      N/A     75 N/A N/A E15G25      N/A
POIPU*           N/A     75 N/A N/A NE9G20      N/A
PRINCEVILLE*     N/A     73 N/A N/A SE5         N/A
KOKOLE POINT*  NOT AVBL
MOLOAA DAIRY*    N/A     73  66  78 E3G9        N/A
WAIMEA HTS*      N/A     73  59  60 NW3G10      N/A
PUU OPAE*      NOT AVBL
PUU LUA*       NOT AVBL
MAKAHA RIDGE*    N/A     66  57  72 CALM        N/A
$$

HIZ005>011-241100-
OAHU-

CITY           SKY/WX    TMP DP  RH WIND       PRES   REMARKS
HONOLULU       MOCLDY    73  68  84 NE7       30.06F
KALAELOA       PTCLDY    73  68  84 E6        30.07F
KANEOHE MCB    NOT AVBL
WHEELER FIELD  FAIR      68  66  94 W5        30.07F
BELLOWS*         N/A    N/A N/A N/A NE17        N/A
KAHUKU*          N/A    N/A N/A N/A NE7G15      N/A
WHEELER*         N/A    N/A N/A N/A N3G9        N/A
WAIANAE HARBOR   N/A    N/A N/A N/A SE5G12      N/A
DILLINGHAM*      N/A     88  79  74 W2          N/A  HX 102
KAHUKU TRN*      N/A     72  70  94 W10G21      N/A
KAWAILOA*        N/A     70  66  88 SE2G16      N/A
KII*             N/A     75  70  83 NE15G23     N/A
MAKUA RANGE*     N/A     75  66  73 W7G16       N/A
OAHU FOREST NW   N/A     68  64  88 E20G32      N/A
SCHOFIELD BRK*   N/A     68  64  88 CALM        N/A
SCHOFIELD S*   NOT AVBL
WAIANAE VLY*     N/A     72  64  78 E5G13       N/A
KUAOKALA*        N/A     72  66  83 NE10G31     N/A
HONOULIUULI*   NOT AVBL
MOKUOLOE IS*   NOT AVBL
PALEHUA*         N/A     64  63  94 NE12G26     N/A
WAIAWA PHB*    NOT AVBL
$$

HIZ012>013-241100-
MOLOKAI-

CITY           SKY/WX    TMP DP  RH WIND       PRES   REMARKS
MOLOKAI AIRPT  MOCLDY    73  68  84 NE8       30.06F
KALAUPAPA      NOT AVBL
MAKAPULAPAI*     N/A     75  68  78 E21G33      N/A
MOLOKAI 1*       N/A    N/A N/A N/A W2G8        N/A
PUU ALII*        N/A     59  59 100 CALM        N/A
$$

HIZ016-241100-
KAHOOLAWE-

CITY           SKY/WX    TMP DP  RH WIND       PRES   REMARKS
KAHOOLAWE*     NOT AVBL
HAKIOAWA*        N/A     70  62  75 MISG      30.45F
HONOKANAIA*      N/A     75  63  66 NE15G26   29.99R
KANELOA*         N/A     73  66  78 NE17G32   30.12R
KEALIALALO*    NOT AVBL
LUA MAKIKA*    NOT AVBL
$$

HIZ014>015-241100-
LANAI-

CITY           SKY/WX    TMP DP  RH WIND       PRES   REMARKS
LANAI CITY     FAIR      68  63  84 N3        30.10F
LANAI 1*         N/A     66  63  88 E9          N/A
$$

HIZ017>028-241100-
MAUI-

CITY           SKY/WX    TMP DP  RH WIND       PRES   REMARKS
KAHULUI        CLEAR     73  64  73 NE10      30.05F
KAPALUA-W MAUI NOT AVBL
HANA AIRPORT   CLOUDY    73  66  78 NE5       30.10F
HANA*            N/A     70 N/A N/A S2G9        N/A
HALEAKALA SUMM   N/A     46   5  18 E15G33      N/A
MAALAEA BAY*     N/A     75 N/A N/A N20G28      N/A
HALEAKALA*     NOT AVBL
KAUPO GAP*     NOT AVBL
KULA 1*          N/A     46  43  87 E6          N/A
$$

HIZ023>026-241100-
BIG ISLAND OF HAWAII COAST AND LOWER SLOPES-

CITY           SKY/WX    TMP DP  RH WIND       PRES   REMARKS
KAILUA KONA    MOCLDY    78  66  66 NW9       30.01F
HILO           CLOUDY    70  67  90 SW7       30.06F
HONOKAA*         N/A     68 N/A N/A VRB1        N/A
KAWAIHAE MWT*    N/A     77 N/A N/A N6          N/A
KAWAIHAE*        N/A     77 N/A N/A NE3       30.01S
SOUTH POINT*     N/A     70 N/A N/A N14G20      N/A
UPOLU AIRPORT* NOT AVBL
KAMUELA*       NOT AVBL
HAKALAU*         N/A     41  39  93 W5          N/A
KALOKO-HONOKO* NOT AVBL
PALI 2*          N/A     63  55  77 S10G18      N/A
KEALAKOMO*       N/A     73  64  73 NE12G18     N/A
KAUPULEHU*       N/A     70  63  78 SW9         N/A
KAPAPALA*        N/A     62  60  94 W3          N/A
LOWER KAHUKU*    N/A     59  59 100 N2          N/A
PUHE CS*         N/A     79  59  50 E5G15       N/A
PUHO CS*         N/A     75  65  71 E1          N/A
PTA KEAMUKU*     N/A     55  54  94 CALM        N/A
WAIKOLOA*        N/A     68  57  68 E10G18      N/A
$$

HIZ027>028-241100-
BIG ISLAND OF HAWAII INTERIOR AND SUMMMITS-

CITY           SKY/WX    TMP DP  RH WIND       PRES   REMARKS
BRADSHAW FIELD CLOUDY    46  40  79 SE5       30.32F
MK VISITOR CEN   N/A     52  -2  11 NE10        N/A
MAUNA KEA*       N/A     36  -9  14 E10         N/A  WCI  28
MAUNA LOA*       N/A     46 -20   5 MISG        N/A
MAUNA LOA 1*   NOT AVBL
PTA KIPUKA*      N/A     52  52 100 S6G12       N/A
PTA RANGE 17*    N/A     54  43  66 E12G18      N/A
PTA WEST*        N/A     55  50  82 SE3G13      N/A
NENE CABIN*      N/A    N/A N/A N/A NE7         N/A
AHUMOA*          N/A     46  43  87 E5          N/A
PTA PORTABLE*  NOT AVBL
PUU MALI*        N/A     57  -2   9 E20G26      N/A
$$

HIC003-241100-
NORTHWEST ISLANDS-

CITY           SKY/WX    TMP DP  RH WIND       PRES   REMARKS
MIDWAY ISLAND  MOCLDY    70  63  78 E18       30.33R
MIDWAY NOS*      N/A     72 N/A N/A MISG      30.31S
FRENCH FRIGATE NOT AVBL
$$

PHZ110>124-180-241100-
BUOY REPORTS

STATION/POSITION TIME  TEMP    WIND        PRES    WAVE   SWELL
                       AIR SEA DIR/SP/G            HT/PER HT/DIR
                 (UTC) (F)     (DEG/KT/KT) (MB)    (FT/S) (FT/D)
BUOY 51001       1020   75 77   60/ 19/ 23 1020.8
BUOY 51101       0950   75 77   60/ 19/ 23 1021.5F   9/ 9   5/ 60
BUOY 51100       NOT AVBL
BUOY 51002       1020   78 78   70/ 19/ 23 1015.1
BUOY 51003       0950   78 79   40/ 14/ 16 1016.7F   8/ 9   7/ 40
BUOY 51004       0950      78   80/ 17/ 21 1015.6F   7/ 7   3/160
BARBERS PT BUOY  NOT AVBL
WAIMEA BAY BUOY  1002      78                N/A     8/ 8   3/330
KAILUA BAY BUOY  1004      79                N/A     8/ 8   2/350
LANAI BUOY       NOT AVBL
BARBERS PT 2     NOT AVBL
PAUWELA MAUI     1009      78                N/A     9/11   3/330
HILO             NOT AVBL
KANEOHE BAY BUOY 1025      79                N/A     8/ 8   2/350
HANALEI KAUAI    1022      79                N/A     8/ 9   3/340
KAHULUI HARBOR   1006   76 79   20/ 10/ 13 1017.9
HONOLULU HARBOR  1006   73 80   50/  3/  4 1018.8
KILO NALU        NOT AVBL
HILO HARBOR      1006   71 78  230/  3/  5 1017.5
MOKUOLOE         0936   76 80   60/ 12/ 16 1018.4F
NAWILIWILI       1018   76      40/  9/ 13 1019.1
WHOTS BUOY       NOT AVBL
BUOY 51028       NOT AVBL
$$

......................KEY........................................
  SKY/WX - SKY CONDITIONS/PRESENT WEATHER
  TMP    - TEMPERATURE IN FAHRENHEIT
  DWPT   - DEWPOINT IN FAHRENHEIT
  RH     - RELATIVE HUMIDITY IN PERCENT
  WIND   - DIRECTION AND SPEED /MPH FOR ISLANDS...KTS FOR BUOYS/
  PRES   - MEAN SEA LEVEL PRESSURE IN INCHES OF HG
  VSB    - VISIBILITY IN MILES
  HX     - HEAT INDEX
  WCI    - WIND CHILL INDEX
  VRB    - VARIABLE WIND DIRECTION
  N/A    - NOT AVAILABLE




USA.gov is the U.S. government's official web portal to all federal, state and local government web resources and services.